[[{"header":{"parameterUnit":"m.s-1","parameterCategory":1,"la1":30.2991,"la2":30.254,"lo1":-89.0895,"lo2":-89.0444,"dy":0.0017,"dx":0.0017,"nx":28,"ny":28,"refTime":"2026-01-01T03:00:00:Z","depth":0,"parameterNumber":2,"parameterNumberName":"U-component_of_WINDS"},"data":[0,0,0,0,0,0,0,0,0,0,0,0,0,0,0,0,0,0,0,0,0,0,0,0,0,0,0,0,0,0,0,0,0,0,0,0,0,0,0,0,0,0,0,0,0,0,0,0,0,0,0,0,0,0,0,0,0,0,0.5152,0.5154,0,0.5296,0.5298,0.53,0.5332,0.5331,0.533,0.5329,0.5482,0.5487,0.5492,0,0,0,0,0,0,0,0,0,0,0,0,0,0.491,0.4914,0.5152,0.5154,0.5156,0.5296,0.5298,0.53,0.5332,0.5331,0.5329,0.5328,0.548,0.5486,0.5492,0,0,0,0,0,0,0,0,0,0,0,0,0,0.5031,0.4915,0.5152,0.5188,0.5193,0.5296,0.5298,0.5301,0.5332,0.5331,0.5329,0.5328,0.5478,0.5486,0.5493,0.5571,0,0,0.5516,0.5519,0,0,0,0,0,0,0,0,0.5024,0.5039,0.5181,0.5186,0.5191,0.5294,0.5269,0.5391,0.5333,0.528,0.5329,0.5327,0.5421,0.5433,0.5464,0.5578,0.5585,0.5517,0.5521,0.5525,0.5527,0,0,0,0,0,0,0,0.5015,0.5033,0.5209,0.5183,0.5189,0.5199,0.5215,0.5292,0.5358,0.5284,0.5287,0.5303,0.5424,0.5456,0.5468,0.5587,0.5517,0.5523,0.5528,0.5531,0.5774,0.5776,0,0,0,0,0,0,0.5,0.5026,0.5205,0.5214,0.5102,0.5205,0.5222,0.5263,0.5357,0.5369,0.5304,0.5304,0.5444,0.5459,0.5473,0.5572,0.5525,0.5532,0.5536,0.5773,0.5775,0.5777,0,0,0,0,0,0,0.4994,0.5015,0.5199,0.5121,0.5145,0.5211,0.5256,0.5267,0.5299,0.5372,0.5384,0.5325,0.5444,0.5463,0.5546,0.5577,0.5535,0.5542,0.577,0.5773,0.5776,0.5768,0,0,0,0,0,0,0.4987,0.5013,0.5042,0.5121,0.5149,0.5268,0.5258,0.5271,0.5312,0.5313,0.5395,0.5407,0.5444,0.5535,0.5554,0.5587,0.5548,0.5768,0.5772,0.5775,0.5766,0.577,0.5774,0,0,0,0,0,0.4978,0.5035,0.5043,0.5065,0.5186,0.5269,0.5285,0.5325,0.5314,0.5345,0.5391,0.5405,0.5571,0.5543,0.5565,0.5601,0.5766,0.5771,0.5775,0.5764,0.5769,0.5774,0,0,0,0,0,0,0.4959,0.5046,0.5056,0.5139,0.5197,0.5274,0.5314,0.5329,0.5392,0.5391,0.5439,0.5457,0.5538,0.5578,0.5546,0.5682,0.5668,0.5677,0.5653,0.5658,0.5662,0.5651,0.5554,0,0,0,0,0,0.4964,0.5023,0.5096,0.5163,0.5191,0.5248,0.5285,0.5311,0.5373,0.5398,0.5451,0.5512,0.5578,0.562,0.5685,0.5772,0.5791,0.5807,0.5811,0.5814,0.5822,0.5872,0.588,0.5791,0.5791,0.5791,0,0,0.4976,0.5031,0.5065,0.5161,0.5208,0.5269,0.5268,0.5333,0.5379,0.5408,0.549,0.5531,0.5603,0.5689,0.5729,0.5724,0.5851,0.582,0.5822,0.5828,0.5877,0.5885,0.5893,0.5794,0.5794,0.5793,0,0,0.5029,0.5076,0.5136,0.5184,0.5255,0.5293,0.5307,0.5383,0.5411,0.5494,0.5517,0.5574,0.5687,0.5737,0.5777,0.5851,0.5866,0.5871,0.5892,0.594,0.5947,0.5954,0.5981,0.599,0.5878,0.5878,0.5878,0,0.5035,0.5127,0.5166,0.523,0.5272,0.53,0.5363,0.5408,0.5497,0.5526,0.5519,0.5661,0.5712,0.581,0.5828,0.5859,0.5879,0.5861,0.5943,0.595,0.5957,0.5983,0.5993,0.5878,0.5878,0.5878,0.5878,0,0.5131,0.5195,0.5236,0.5319,0.5366,0.5429,0.548,0.5523,0.5545,0.5584,0.5669,0.573,0.5808,0.5834,0.5856,0.5936,0.5931,0.5933,0.592,0.5964,0.599,0.6,0.5878,0.5878,0.5878,0.5878,0,0,0.5175,0.528,0.5295,0.5333,0.5415,0.5466,0.5531,0.5606,0.5642,0.5704,0.5761,0.5856,0.5858,0.5904,0.5933,0.5975,0.603,0.5972,0.5975,0.5981,0.6123,0.6121,0.6132,0.6041,0.6043,0.6045,0.6117,0,0.5238,0.5353,0.5391,0.5488,0.5548,0.5576,0.5633,0.569,0.5729,0.5787,0.5831,0.5897,0.5895,0.5923,0.5966,0.6014,0.606,0.601,0.6096,0.6099,0.6077,0.6145,0.6143,0.6209,0.6128,0.6129,0.6131,0,0.5326,0.5387,0.5489,0.5564,0.559,0.5641,0.5713,0.5768,0.5834,0.5859,0.5911,0.5936,0.6008,0.5991,0.6092,0.6057,0.6095,0.6124,0.6128,0.6138,0.6117,0.6157,0.6231,0.6241,0.6147,0.6145,0.6144,0,0.5348,0.5456,0.5531,0.5564,0.5653,0.5688,0.5727,0.5791,0.5834,0.5898,0.5927,0.5999,0.6039,0.6095,0.614,0.6124,0.6237,0.6224,0.6262,0.6261,0.6284,0.6282,0.6365,0.6308,0.6308,0.6308,0.6308,0,0.5414,0.5475,0.5542,0.5589,0.5659,0.5704,0.5773,0.5814,0.5872,0.5928,0.5958,0.601,0.6067,0.6128,0.6164,0.6242,0.626,0.6284,0.6293,0.6281,0.6278,0.6307,0.6303,0.6311,0.631,0.631,0.6309,0,0.545,0.5497,0.5581,0.5658,0.5679,0.5728,0.5795,0.5842,0.5882,0.5953,0.5973,0.6036,0.6109,0.616,0.6255,0.6279,0.6364,0.6372,0.6341,0.6345,0.638,0.6376,0.6485,0.6502,0.6433,0.6434,0.6434,0,0.5488,0.5536,0.5618,0.5657,0.5696,0.5759,0.5802,0.5849,0.5894,0.5974,0.6012,0.6087,0.6149,0.6265,0.6321,0.6394,0.6404,0.6437,0.6416,0.6403,0.6406,0.6402,0.6408,0.6441,0.6441,0.6442,0.6442,0,0.5552,0.5574,0.5634,0.5704,0.5755,0.5813,0.5871,0.5902,0.5959,0.6008,0.6082,0.6131,0.6227,0.6302,0.638,0.6423,0.6443,0.6448,0.6461,0.645,0.6429,0.6441,0.635,0.6446,0.6445,0.6445,0.6445,0.6445,0.5591,0.5636,0.57,0.5768,0.5816,0.587,0.5918,0.5964,0.6026,0.6107,0.6131,0.6209,0.6276,0.6383,0.6427,0.649,0.6488,0.6506,0.6511,0.6515,0.6514,0.6419,0.6505,0.6505,0.6505,0.6505,0.6505,0,0.5657,0.57,0.5762,0.5841,0.5895,0.5907,0.5973,0.6017,0.6084,0.6145,0.6205,0.6292,0.6365,0.6426,0.6502,0.6541,0.6552,0.6559,0.6557,0.6567,0.6512,0.6493,0.6549,0.6549,0.6549,0.6549,0.6549,0.6549,0.5697,0.5773,0.5802,0.5903,0.5946,0.6021,0.6057,0.6108,0.6156,0.6251,0.6311,0.635,0.6412,0.6493,0.6561,0.6578,0.6605,0.661,0.6628,0.6576,0.6571,0.6566,0.6549,0.6615,0.6615,0.6679,0.6679,0.6679]},{"header":{"parameterUnit":"m.s-1","parameterCategory":1,"la1":30.2991,"la2":30.254,"lo1":-89.0895,"lo2":-89.0444,"dy":0.0017,"dx":0.0017,"nx":28,"ny":28,"refTime":"2026-01-01T03:00:00:Z","depth":0,"parameterNumber":3,"parameterNumberName":"V-component_of_WINDS"},"data":[0,0,0,0,0,0,0,0,0,0,0,0,0,0,0,0,0,0,0,0,0,0,0,0,0,0,0,0,0,0,0,0,0,0,0,0,0,0,0,0,0,0,0,0,0,0,0,0,0,0,0,0,0,0,0,0,0,0,2.5539,2.554,0,2.5619,2.562,2.562,2.5598,2.5596,2.5595,2.5593,2.5679,2.5682,2.5686,0,0,0,0,0,0,0,0,0,0,0,0,0,2.5373,2.5376,2.5539,2.554,2.5541,2.5618,2.562,2.5621,2.5598,2.5596,2.5594,2.5592,2.5677,2.5682,2.5686,0,0,0,0,0,0,0,0,0,0,0,0,0,2.5448,2.5377,2.5539,2.5539,2.554,2.5618,2.562,2.5621,2.5599,2.5596,2.5594,2.5591,2.5676,2.5681,2.5687,2.5771,0,0,2.5705,2.5707,0,0,0,0,0,0,0,0,2.5444,2.5454,2.5538,2.5539,2.554,2.5596,2.5592,2.5672,2.5599,2.5577,2.5593,2.559,2.5653,2.5661,2.5681,2.5775,2.5779,2.5705,2.5708,2.5711,2.5713,0,0,0,0,0,0,0,2.5438,2.5451,2.5571,2.5539,2.5541,2.5537,2.5545,2.5607,2.5628,2.5578,2.5577,2.5586,2.5654,2.5676,2.5683,2.578,2.5705,2.571,2.5713,2.5716,2.5949,2.5952,0,0,0,0,0,0,2.5432,2.5446,2.5568,2.5573,2.5485,2.5542,2.5551,2.5581,2.5627,2.5632,2.5588,2.5585,2.5667,2.5676,2.5686,2.5789,2.5711,2.5716,2.5719,2.5947,2.595,2.5953,0,0,0,0,0,0,2.5428,2.5443,2.5565,2.5509,2.5524,2.5547,2.5581,2.5583,2.5605,2.5635,2.5639,2.5607,2.5666,2.5678,2.575,2.5791,2.5719,2.5724,2.5943,2.5948,2.5951,2.5994,0,0,0,0,0,0,2.5424,2.5442,2.5473,2.551,2.5528,2.5627,2.5583,2.5587,2.5615,2.5611,2.5653,2.5658,2.5665,2.5742,2.5756,2.5798,2.5728,2.594,2.5945,2.595,2.5989,2.5999,2.6008,0,0,0,0,0,2.5418,2.5482,2.5474,2.5489,2.5567,2.5629,2.5639,2.5645,2.5618,2.5651,2.5669,2.5656,2.5784,2.575,2.5765,2.5809,2.5937,2.5944,2.595,2.5985,2.5997,2.6007,0,0,0,0,0,0,2.545,2.5487,2.5479,2.5557,2.559,2.5625,2.5666,2.5657,2.5699,2.5694,2.5701,2.571,2.5785,2.5804,2.5765,2.5894,2.5857,2.5867,2.5878,2.589,2.5899,2.5893,2.5733,0,0,0,0,0,2.5466,2.5512,2.5543,2.5609,2.5626,2.5643,2.567,2.5672,2.5707,2.5721,2.5745,2.5781,2.5829,2.5861,2.5907,2.5992,2.6001,2.603,2.6039,2.6047,2.6055,2.6103,2.6116,2.5974,2.5973,2.5973,0,0,2.55,2.5526,2.5555,2.5616,2.5641,2.5691,2.5655,2.5708,2.5745,2.5729,2.5799,2.5818,2.5859,2.5938,2.5974,2.5956,2.6097,2.6055,2.606,2.6065,2.6111,2.6124,2.6136,2.5978,2.5977,2.5976,0,0,2.5587,2.5611,2.5669,2.5695,2.5734,2.5746,2.576,2.5796,2.5808,2.5878,2.5867,2.5913,2.5995,2.6025,2.6051,2.615,2.614,2.6165,2.6214,2.6261,2.6272,2.6282,2.6319,2.6331,2.6173,2.6174,2.6174,0,2.5625,2.5697,2.57,2.5755,2.5783,2.5769,2.5829,2.5855,2.5908,2.5928,2.5907,2.6012,2.6038,2.6125,2.6149,2.617,2.6188,2.616,2.627,2.628,2.6289,2.6324,2.6338,2.6176,2.6176,2.6176,2.6175,0,2.5742,2.5793,2.5835,2.5885,2.5918,2.5975,2.5988,2.6021,2.602,2.6034,2.6107,2.6138,2.619,2.6211,2.621,2.6298,2.6286,2.6268,2.6231,2.6306,2.6339,2.6352,2.618,2.6179,2.6179,2.6178,0,0,2.5851,2.5903,2.5918,2.5941,2.5984,2.6024,2.6081,2.6131,2.616,2.6198,2.6247,2.6317,2.6301,2.633,2.6333,2.6374,2.6453,2.6351,2.6352,2.637,2.6553,2.6567,2.6582,2.6446,2.6449,2.6451,2.655,0,2.5942,2.6041,2.6047,2.6137,2.6185,2.6174,2.6224,2.6257,2.6272,2.6315,2.6333,2.6383,2.6357,2.6374,2.6414,2.6435,2.649,2.6427,2.6494,2.6496,2.6484,2.6599,2.6614,2.6705,2.6562,2.6565,2.6566,0,2.6062,2.6102,2.6197,2.6234,2.6254,2.6299,2.6346,2.6387,2.6425,2.6433,2.6466,2.6464,2.6525,2.6486,2.657,2.6528,2.6555,2.657,2.6573,2.658,2.6536,2.661,2.6735,2.6749,2.6586,2.6585,2.6583,0,2.6133,2.6211,2.6278,2.6298,2.6342,2.6374,2.6395,2.6429,2.646,2.6502,2.6522,2.6571,2.6598,2.6636,2.6648,2.6618,2.6733,2.6694,2.6743,2.6743,2.6768,2.6766,2.69,2.6785,2.6784,2.6784,2.6784,0,2.6235,2.6293,2.631,2.6352,2.6418,2.6424,2.6491,2.6509,2.654,2.6587,2.658,2.6624,2.6637,2.6683,2.6693,2.6763,2.6775,2.6784,2.6786,2.6785,2.6784,2.6804,2.6798,2.6788,2.6787,2.6786,2.6786,0,2.6325,2.6339,2.6411,2.6447,2.6458,2.6505,2.6537,2.6578,2.6592,2.6651,2.6665,2.6688,2.6743,2.6758,2.6824,2.6831,2.6913,2.6909,2.69,2.69,2.6948,2.6944,2.7099,2.712,2.6991,2.6992,2.6993,0,2.6389,2.6434,2.6475,2.6505,2.6526,2.6574,2.6605,2.6614,2.6647,2.6693,2.6729,2.6783,2.6826,2.6914,2.6938,2.6989,2.6987,2.7038,2.6994,2.6992,2.6989,2.6986,2.6991,2.7046,2.7047,2.7048,2.7049,0,2.6502,2.6506,2.655,2.6597,2.6634,2.6671,2.6707,2.6733,2.6747,2.6784,2.6839,2.6873,2.694,2.6994,2.7046,2.7069,2.7063,2.7063,2.7077,2.7076,2.707,2.7075,2.6923,2.7059,2.7058,2.7058,2.7057,2.7057,2.6581,2.6621,2.6656,2.6706,2.6734,2.6768,2.6809,2.6828,2.6874,2.6928,2.6931,2.6991,2.703,2.7098,2.7124,2.7172,2.7157,2.7178,2.7183,2.7188,2.7192,2.7061,2.7182,2.7182,2.7181,2.7181,2.7181,0,2.6694,2.6716,2.6762,2.6812,2.6852,2.6841,2.6881,2.6915,2.6968,2.7003,2.7046,2.7111,2.7163,2.7191,2.7244,2.7278,2.7277,2.7292,2.729,2.7295,2.7202,2.7185,2.7292,2.7292,2.7292,2.7292,2.7292,2.7292,2.6758,2.6825,2.6834,2.6916,2.6938,2.6996,2.702,2.7052,2.7081,2.7152,2.7196,2.7213,2.7247,2.7302,2.7351,2.7358,2.7378,2.7395,2.7401,2.7313,2.7302,2.7291,2.7275,2.7399,2.7399,2.749,2.7491,2.7491]}]]